Dewpoint
-22 -23 -24 -25 -25 -24 -22 -20 -21 -21 -20 -16 -16 -18 -18 -18 -16 -16 -25 -4 -4 -4 -3 -1 1 10 14 15 15 14 14 17 16 15 18 16 16 15 14 16 16 15 15 14 12
-22 -23 -23 -23 -23 -23 -22 -21 -21 -22 -19 -17 -16 -17 -18 -16 -12 -18 -25 -8 -1 -4 -6 3 7 9 11 13 13 13 14 14 12 13 16 16 16 13 15 15 16 15 15 14 13
-20 -21 -22 -22 -22 -22 -21 -19 -18 -20 -20 -17 -16 -17 -17 -12 -1 2 -16 -7 -4 -3 -8 6 6 7 10 11 11 10 13 11 11 12 15 15 17 14 14 15 15 15 15 14 14
-19 -21 -22 -22 -22 -21 -19 -17 -16 -16 -18 -19 -17 -17 -15 -10 6 3 0 -1 -3 -7 -9 7 8 6 9 9 9 11 9 9 10 14 17 17 17 15 15 16 16 15 14 14 13
-20 -21 -22 -22 -22 -20 -18 -15 -15 -15 -17 -18 -17 -16 -9 2 -5 -3 -6 -4 -11 -8 -10 7 9 8 8 8 7 8 7 7 9 13 16 17 16 16 15 13 16 15 14 13 13
-21 -22 -22 -22 -22 -20 -17 -13 -14 -15 -16 -17 -14 -9 -9 6 -5 -5 -5 2 -6 -6 -11 7 10 8 7 6 6 5 5 4 5 14 16 15 16 15 15 13 16 15 14 13 13
-19 -21 -22 -22 -22 -20 -17 -14 -13 -14 -14 -14 -8 -8 3 4 -6 -7 -6 2 1 -5 -9 8 9 10 5 4 3 1 1 -0 2 9 14 14 16 16 15 15 15 15 14 13 13
-19 -20 -21 -21 -20 -19 -16 -14 -12 -14 -10 -8 -4 0 5 -6 -8 -8 -6 -0 3 2 -5 4 8 8 5 3 2 0 -2 1 1 7 10 12 17 16 15 16 15 15 14 14 13
-14 -12 -14 -15 -18 -18 -16 -11 -13 -12 -9 -6 -2 6 5 -6 -9 -9 -8 -2 1 3 -2 -1 2 5 3 2 4 3 1 -0 -0 0 11 12 17 17 16 16 15 15 15 14 14
-6 -7 -8 -9 -12 -16 -14 -7 -7 -14 -4 -6 -1 4 -0 -6 -10 -9 -8 -6 1 -0 -1 -1 4 4 3 2 6 5 -0 -2 -2 0 10 13 17 16 15 15 15 14 14 14 14
-8 -10 -11 -9 -10 -14 -10 -4 0 -0 -7 2 1 -3 -7 -11 -12 -8 -5 -4 0 2 4 4 6 6 2 1 0 0 1 -1 -5 -5 8 13 17 17 15 15 16 16 14 14 13
-9 -11 -12 -14 -11 -16 -7 -5 -6 -6 -6 -6 -3 -5 -13 -12 -12 -7 -2 -6 0 3 3 3 6 3 1 1 0 -1 0 -0 -2 -6 -1 13 16 14 15 14 16 16 14 14 13
-8 -10 -14 -15 -11 -7 -5 -5 -6 -6 -6 -7 -11 -10 -15 -14 -13 -8 -3 -2 0 2 3 2 1 1 1 1 -1 -1 0 -0 -1 -5 4 13 15 14 13 14 15 16 14 13 12
-8 -7 -13 -15 -6 -2 -3 -5 -6 -7 -4 -6 -11 -14 -13 -14 -14 -12 -12 -10 -5 0 -0 0 -1 -2 -0 -0 -2 -1 -3 -4 -5 -4 -0 12 17 15 14 15 16 15 14 13 13
-7 -5 -13 -11 -11 -5 -6 -7 -6 -7 0 -10 -12 -13 -14 -14 -12 -12 -13 -12 -8 -7 -5 -1 -2 -0 0 -3 -5 -3 -4 -4 -3 -3 -3 -4 -1 14 14 17 15 15 12 13 13
-6 -5 -14 -2 -1 -2 -4 -7 -6 -4 -1 -9 -11 -12 -13 -14 -14 -11 -12 -11 -12 -9 -9 -8 -9 -5 -2 -3 -4 -6 -5 -5 -4 -2 -0 -4 -3 2 15 15 14 12 10 10 11
-6 -7 -15 -4 -2 -6 -7 -6 -2 -2 -9 -9 -11 -13 -13 -12 -12 -12 -11 -10 -9 -9 -7 -6 -6 -7 -6 -4 -6 -6 -4 -0 1 1 1 -4 -4 -5 13 13 13 12 12 11 13
-6 -4 -3 -10 -5 -5 -6 -3 1 -5 -8 -12 -13 -14 -12 -11 -11 -10 -11 -10 -9 -11 -10 -7 -7 -12 -9 -3 -1 -4 -4 1 3 3 1 -3 -1 -3 -8 12 12 11 13 14 13
-4 -2 -1 -4 -6 -7 -6 -0 -2 -6 -7 -8 -12 -12 -12 -14 -12 -10 -9 -8 -10 -6 -5 -4 -5 -8 -9 -7 -3 -1 0 -5 -2 -2 1 -1 -3 -4 -6 6 12 11 13 12 12
-1 -2 -1 -3 -4 -6 -3 -1 -3 -5 -6 -6 -4 -6 -4 -6 -9 -8 -8 -9 -7 -7 -7 -5 -3 -7 -10 -10 -5 -3 -3 -0 -1 2 4 2 1 1 -2 -5 10 12 12 14 12
1 3 -1 -1 -3 -3 0 1 -2 -4 -4 -4 -3 -3 -3 -2 -3 -2 -3 -5 -6 -6 -7 -6 -5 -6 -8 -7 -6 -4 -3 -3 -1 2 4 3 1 -2 1 3 10 11 11 14 11
3 4 -2 -1 0 0 1 -2 -4 -4 -4 -4 -4 -3 -1 -2 -2 -2 -2 -3 -6 -6 -3 -5 -4 -4 -6 -9 -10 -9 -6 -5 -2 0 3 5 4 -1 1 4 7 10 10 13 10
5 1 -3 -2 1 0 -2 -3 -4 -4 -3 -3 -3 -3 -3 -1 1 -0 -1 -3 -4 -5 -0 -4 -2 -0 -4 -8 -8 -6 -8 -11 -10 -10 -7 -3 2 1 1 2 4 5 7 12 14
5 3 -1 -2 -2 -1 0 -1 -1 -3 -3 -3 -2 -2 -1 -1 -2 -0 -1 -3 -1 -2 -3 -5 -4 -1 0 -1 -3 -3 -4 -6 -7 -9 -8 -7 -5 -8 1 1 0 4 2 8 14
3 -1 -1 1 -0 -1 -1 -2 -2 -1 -3 -3 -1 -2 -2 0 -1 -1 -2 -1 -1 -1 -1 -2 -1 -2 -3 -4 -4 -4 -4 -5 -5 -6 -5 -8 -6 1 -1 -1 -1 -2 -2 -0 2
1 3 -1 -1 -2 -1 -0 1 -1 -0 0 -1 0 -1 -1 -0 0 1 -1 -1 -1 -2 -1 -1 2 -2 -1 -3 -3 -3 -3 -3 -4 -6 -7 -7 -8 -10 -8 -9 -8 -9 -8 -7 -6
3 2 1 -1 -1 -0 -0 -0 -1 -0 -1 -1 -0 1 1 -1 -1 -2 -2 -3 -3 -2 1 2 4 4 3 -0 -0 2 -3 -3 -3 -4 -7 -6 -7 -8 -5 -5 -7 -6 -5 -4 -5
Wind_Speed
20 21 21 21 21 21 19 17 17 16 15 14 14 13 9 10 10 11 15 12 13 10 15 9 13 20 14 16 23 24 2 5 6 5 2 3 4 8 10 18 6 13 23 39 40
20 21 21 22 22 21 20 18 16 16 14 15 14 14 11 13 15 17 11 16 13 14 16 16 17 17 24 21 19 16 4 8 5 4 7 8 13 13 12 14 7 14 32 38 39
22 22 22 22 22 22 21 18 16 15 16 14 14 13 13 13 9 5 10 12 14 14 17 15 14 18 20 24 24 18 14 15 20 9 17 22 19 15 12 11 10 28 37 42 39
23 23 23 22 21 21 20 17 16 15 15 15 13 13 10 8 2 1 2 8 15 16 21 21 20 25 16 14 26 16 24 27 28 15 19 19 13 4 7 7 8 37 45 46 37
23 24 24 23 22 21 20 17 16 15 14 12 12 10 7 2 8 3 5 5 12 20 26 21 15 24 15 15 20 16 17 26 6 18 28 19 17 14 9 17 14 29 37 42 34
23 23 23 23 22 21 19 16 16 14 12 9 9 8 4 4 2 2 5 4 10 21 27 21 13 20 20 20 15 22 24 22 18 17 27 21 11 10 13 27 14 34 38 38 35
24 23 23 21 21 21 18 16 16 11 10 7 3 2 7 12 1 5 5 9 7 17 24 24 22 23 18 10 24 22 12 14 9 11 7 19 4 4 21 21 30 32 35 36 32
23 22 22 21 20 19 17 16 13 8 5 2 1 4 8 3 8 10 5 10 10 13 21 18 16 23 25 19 20 10 8 6 10 7 9 11 7 18 21 24 26 30 31 34 35
25 23 23 20 18 19 15 14 8 5 3 4 1 5 8 6 2 4 8 10 10 14 18 20 22 24 18 6 6 7 6 8 13 15 6 8 12 20 37 29 26 34 35 33 31
25 25 24 21 18 16 12 11 6 6 5 6 6 10 9 10 5 3 5 8 14 14 18 23 21 5 6 3 8 9 7 8 12 17 15 15 14 18 30 28 23 31 36 38 34
27 26 23 20 17 13 8 8 6 1 11 11 4 8 6 3 1 4 7 7 13 17 9 15 4 9 10 10 12 16 15 13 11 16 17 18 20 21 30 36 30 27 30 39 39
26 25 23 18 13 7 9 7 7 6 9 18 23 21 6 2 4 6 7 9 10 7 9 6 13 11 10 15 16 19 16 16 15 13 8 20 18 16 23 28 31 26 39 45 36
26 24 21 15 8 1 8 6 10 8 6 15 20 18 14 9 10 12 9 13 9 10 11 11 11 19 16 16 17 16 11 12 11 16 8 12 5 6 12 21 27 4 13 31 46
24 23 20 12 2 6 11 2 9 7 3 5 12 6 7 1 5 10 6 4 6 11 12 10 18 17 17 17 13 10 10 12 13 8 2 5 3 7 7 6 12 19 6 13 32
23 23 13 9 6 6 12 9 12 5 3 10 8 7 4 9 4 4 3 4 8 10 6 10 14 16 18 15 17 13 10 10 10 7 7 13 1 7 15 7 9 16 21 37 23
20 19 6 3 2 7 14 12 8 2 5 6 7 7 4 8 9 8 5 7 11 8 11 11 22 11 14 16 11 12 10 11 6 4 7 11 4 1 13 18 16 29 44 53 38
17 11 4 6 4 9 11 12 2 3 10 6 7 7 10 8 6 3 6 7 4 1 5 9 12 10 13 9 11 7 2 3 3 5 8 7 5 8 16 19 24 30 37 36 38
13 2 7 3 6 13 9 4 4 8 13 5 8 5 1 7 5 8 1 6 7 9 5 5 7 11 7 6 4 7 9 5 8 6 7 8 6 7 11 34 40 43 35 48 43
9 2 2 7 9 6 8 3 6 10 14 13 2 2 3 4 1 4 2 6 7 13 1 6 6 16 12 14 8 6 5 9 5 12 4 6 8 10 12 11 32 31 29 27 28
11 1 2 6 4 5 3 3 8 14 11 9 8 8 8 12 1 7 6 5 4 9 10 7 6 7 13 5 8 8 4 5 4 6 6 6 9 5 6 18 24 22 34 31 37
8 5 3 6 2 7 2 5 6 14 13 7 7 6 9 9 10 11 12 15 17 11 11 5 2 11 9 4 3 1 2 1 0 1 4 6 8 8 3 18 23 30 42 41 42
4 1 13 4 4 3 4 5 12 14 17 9 5 7 11 12 8 7 9 9 11 14 6 8 2 6 10 18 15 11 3 0 3 7 3 3 8 11 12 18 6 17 36 46 47
11 0 13 10 4 4 8 16 15 12 15 13 10 11 9 7 5 8 11 17 23 9 5 7 4 5 10 6 5 6 6 6 4 4 10 5 8 4 15 17 23 21 26 27 34
7 2 11 18 19 14 6 12 12 21 15 12 9 12 12 9 8 4 5 5 13 13 9 8 3 3 6 7 9 12 19 17 5 2 5 6 8 9 11 12 19 24 35 29 18
7 5 7 4 7 8 13 9 11 9 12 18 7 13 11 6 8 5 10 9 14 9 6 4 4 7 12 13 14 16 18 19 13 9 4 11 14 4 10 11 20 23 24 23 23
5 5 7 9 10 13 8 8 10 11 9 9 10 13 10 5 7 11 11 9 5 6 6 3 4 7 13 12 17 17 17 20 19 16 15 13 16 6 20 25 23 27 27 21 22
8 6 1 8 9 6 3 5 10 9 8 9 6 4 6 10 14 19 21 20 15 8 3 1 3 5 7 8 13 12 12 16 18 18 11 12 10 10 9 14 18 25 28 32 33
Wind_Direction
352 350 349 349 348 345 341 336 328 326 322 324 325 324 321 301 302 263 233 211 205 180 195 192 182 180 205 215 215 228 265 281 293 34 70 138 224 162 130 140 161 166 161 157 152
346 345 345 345 345 344 339 336 329 321 319 320 322 316 310 306 297 268 200 203 205 211 193 176 191 199 219 226 235 222 232 256 194 145 145 153 251 162 146 165 195 142 149 158 157
342 341 341 341 341 342 339 335 330 321 314 314 317 310 311 312 313 267 215 198 221 219 205 181 197 204 226 229 239 243 233 249 269 187 157 169 229 174 155 182 182 158 156 164 164
337 336 336 336 337 338 337 332 326 322 312 309 308 304 305 300 4 154 328 228 232 222 198 202 229 207 225 230 237 239 244 248 261 139 130 126 130 113 137 158 114 158 160 167 170
334 332 332 332 332 333 334 330 324 321 314 307 303 302 302 283 260 309 319 237 215 199 198 202 236 226 220 234 245 243 250 261 212 139 120 173 149 150 164 172 154 165 163 169 172
333 330 329 328 328 329 328 326 323 317 314 306 304 298 209 252 151 278 313 254 215 197 199 201 227 221 228 241 250 253 255 257 261 149 147 153 152 143 182 167 164 164 164 172 175
334 329 327 326 325 324 322 321 320 311 311 301 310 203 258 211 265 227 251 249 229 207 200 197 222 264 243 274 257 276 293 295 273 163 138 131 115 209 164 180 162 163 164 174 179
331 328 325 323 323 320 318 315 315 297 312 259 170 318 264 271 252 216 211 222 235 218 204 207 235 255 262 268 278 284 291 288 286 181 189 158 114 110 125 143 159 160 171 180 182
332 330 325 323 320 316 314 309 304 289 290 221 232 310 275 223 222 186 214 200 199 204 216 225 245 252 264 277 311 289 255 248 259 256 158 157 120 149 145 165 170 168 179 189 188
331 330 326 322 321 314 311 306 285 265 276 265 212 296 246 233 142 237 220 210 184 190 218 234 255 205 255 206 227 248 245 238 251 253 179 186 125 159 162 173 177 178 180 185 199
333 333 327 319 316 313 309 344 328 178 228 222 237 222 159 209 231 215 186 219 190 201 210 220 246 222 224 234 255 263 278 281 258 245 188 181 151 165 177 167 180 210 199 183 197
336 334 329 318 310 286 294 320 21 326 293 272 262 258 270 266 237 177 182 201 187 199 204 238 227 240 226 236 235 250 263 277 287 281 190 138 155 167 172 176 177 214 211 178 190
338 336 332 322 314 198 299 308 333 329 275 284 241 229 239 217 252 181 179 228 188 214 205 221 234 222 237 246 241 245 239 268 270 304 17 86 71 169 188 186 163 168 165 190 184
339 339 335 333 273 304 312 18 329 326 292 253 177 207 147 148 273 156 149 334 268 232 221 231 237 251 223 238 251 253 257 264 270 306 158 239 214 214 161 126 148 133 169 226 203
338 337 342 324 301 341 6 345 328 284 290 133 119 161 201 194 108 149 123 304 274 286 244 251 220 242 248 237 226 253 271 272 287 264 308 286 295 223 153 150 184 115 247 247 234
337 335 352 266 40 7 339 332 298 264 233 130 136 180 184 235 255 142 210 213 289 297 290 273 286 243 244 257 250 222 258 284 312 335 272 263 148 261 167 187 171 174 196 225 223
337 332 311 243 4 4 334 315 262 239 136 152 157 159 199 170 182 187 228 188 207 214 267 292 277 288 281 258 259 244 273 293 320 275 255 274 268 220 198 177 179 193 205 205 214
340 0 49 92 9 341 308 307 268 13 9 83 103 69 296 146 169 169 207 306 225 228 266 263 280 241 261 257 243 232 194 171 216 228 259 246 256 262 235 184 192 198 196 189 198
352 244 13 16 4 336 293 279 20 26 7 355 111 157 218 219 121 85 224 271 296 49 356 11 287 340 304 234 183 274 254 217 255 280 311 266 275 280 251 174 188 185 185 193 193
16 301 86 6 309 285 277 276 61 60 5 351 359 9 1 24 211 167 190 347 85 62 54 4 322 305 333 332 204 191 264 17 251 246 258 276 292 255 257 234 179 178 185 163 164
1 340 0 346 256 262 270 64 3 51 30 29 6 2 354 359 358 352 6 31 22 23 86 38 94 291 341 322 241 347 332 68 169 244 242 249 273 255 152 31 193 185 186 171 171
353 263 357 54 259 31 350 48 19 19 21 26 25 7 23 0 3 348 355 15 35 18 11 17 316 306 286 306 317 299 266 99 155 280 240 213 276 342 23 29 338 195 190 181 179
348 304 38 7 15 8 38 82 58 19 28 16 16 21 3 350 0 4 7 29 24 37 32 344 337 332 326 327 355 347 307 263 251 257 265 231 274 93 35 33 43 37 26 192 171
348 1 28 43 30 31 36 38 35 36 31 7 33 44 18 359 349 308 307 348 33 26 6 13 295 250 269 329 325 321 322 325 331 235 282 262 281 293 22 16 19 49 57 65 162
5 62 15 16 12 61 54 43 33 27 356 37 25 24 14 351 336 320 5 345 351 348 338 338 273 295 293 303 305 300 302 304 308 296 294 288 286 61 39 17 10 19 35 53 66
49 39 47 8 26 76 43 14 30 16 4 21 21 7 353 343 2 342 347 340 322 337 330 348 302 272 284 295 291 288 292 294 296 290 290 297 282 24 5 357 5 351 358 15 12
35 353 345 30 40 62 54 30 41 29 2 12 23 352 317 344 322 310 303 296 288 288 254 275 16 359 283 325 319 296 259 270 276 285 290 289 296 330 355 348 349 355 359 354 348
Height
1525 1522 1519 1516 1513 1509 1506 1504 1501 1499 1497 1496 1494 1492 1490 1489 1488 1486 1485 1488 1490 1492 1495 1498 1501 1503 1508 1507 1507 1506 1510 1511 1504 1500 1507 1505 1503 1505 1505 1509 1513 1514 1517 1520 1529
1523 1520 1517 1514 1511 1508 1504 1502 1500 1497 1495 1493 1492 1490 1488 1487 1485 1482 1484 1484 1488 1491 1494 1496 1499 1502 1505 1503 1503 1504 1507 1501 1491 1492 1501 1508 1506 1505 1504 1512 1513 1516 1520 1526 1530
1522 1518 1515 1512 1509 1506 1502 1499 1497 1495 1493 1491 1490 1488 1486 1485 1483 1478 1480 1482 1486 1489 1492 1495 1499 1502 1502 1500 1498 1497 1498 1491 1489 1489 1496 1511 1517 1511 1507 1508 1508 1512 1518 1524 1531
1521 1517 1514 1510 1507 1504 1501 1497 1495 1493 1491 1489 1488 1486 1485 1484 1484 1479 1479 1481 1484 1486 1490 1492 1495 1498 1497 1496 1493 1495 1487 1486 1484 1487 1498 1507 1494 1509 1504 1506 1510 1513 1514 1523 1530
1519 1515 1512 1508 1505 1502 1498 1495 1492 1490 1488 1487 1485 1485 1484 1484 1479 1479 1480 1479 1480 1483 1486 1489 1491 1493 1493 1491 1489 1487 1482 1479 1480 1484 1484 1505 1498 1497 1499 1502 1508 1518 1521 1525 1532
1516 1512 1509 1506 1502 1499 1496 1493 1490 1488 1485 1484 1483 1482 1483 1484 1479 1478 1478 1478 1479 1481 1484 1487 1487 1488 1488 1487 1486 1481 1478 1475 1474 1479 1484 1490 1496 1495 1500 1504 1510 1515 1521 1527 1532
1514 1510 1506 1503 1500 1496 1493 1490 1488 1485 1483 1483 1482 1482 1482 1478 1478 1478 1478 1477 1479 1480 1482 1484 1484 1488 1486 1485 1481 1479 1479 1472 1470 1471 1478 1488 1499 1497 1500 1509 1514 1518 1522 1528 1531
1511 1507 1503 1500 1497 1493 1490 1488 1485 1484 1482 1482 1482 1482 1477 1475 1475 1476 1476 1477 1478 1480 1483 1484 1485 1486 1485 1484 1480 1480 1478 1488 1470 1468 1471 1476 1502 1500 1505 1514 1518 1522 1526 1530 1532
1508 1504 1500 1496 1493 1490 1487 1485 1483 1482 1481 1481 1482 1482 1478 1474 1474 1473 1475 1476 1478 1481 1482 1484 1486 1485 1484 1486 1494 1484 1500 1488 1478 1466 1468 1476 1501 1506 1504 1515 1516 1519 1523 1529 1532
1505 1501 1497 1493 1490 1487 1484 1482 1482 1482 1481 1480 1481 1485 1474 1473 1472 1473 1473 1473 1477 1480 1483 1484 1483 1483 1485 1492 1511 1500 1492 1483 1480 1462 1465 1475 1497 1502 1501 1504 1511 1517 1519 1525 1530
1503 1498 1494 1490 1488 1485 1482 1481 1482 1481 1480 1474 1474 1469 1469 1471 1471 1471 1472 1473 1475 1478 1481 1478 1485 1489 1486 1484 1484 1481 1482 1483 1467 1453 1461 1471 1490 1496 1497 1497 1503 1514 1520 1520 1528
1500 1495 1490 1487 1484 1483 1482 1481 1483 1484 1477 1471 1469 1470 1470 1469 1469 1470 1472 1474 1474 1478 1476 1482 1487 1479 1477 1479 1480 1479 1481 1478 1462 1450 1454 1470 1485 1492 1491 1491 1502 1498 1516 1510 1524
1497 1492 1488 1484 1482 1482 1482 1482 1481 1481 1478 1465 1463 1466 1468 1470 1468 1467 1470 1470 1471 1475 1474 1482 1476 1472 1473 1475 1476 1475 1480 1474 1472 1454 1456 1469 1493 1496 1496 1497 1507 1497 1508 1515 1512
1495 1491 1487 1482 1485 1483 1480 1482 1481 1480 1484 1461 1459 1464 1466 1468 1468 1466 1469 1472 1469 1472 1471 1473 1469 1469 1473 1473 1470 1484 1463 1461 1461 1470 1492 1465 1510 1494 1492 1496 1493 1493 1506 1515 1518
1493 1489 1486 1483 1482 1483 1482 1481 1480 1480 1494 1456 1459 1463 1464 1468 1466 1467 1468 1471 1473 1470 1469 1471 1465 1465 1468 1465 1461 1470 1459 1462 1460 1468 1474 1469 1492 1485 1485 1497 1493 1483 1496 1505 1512
1491 1488 1485 1483 1482 1483 1482 1480 1480 1488 1486 1456 1458 1461 1465 1466 1466 1468 1469 1471 1469 1470 1465 1464 1456 1456 1458 1453 1454 1455 1462 1464 1465 1474 1495 1473 1484 1481 1482 1475 1485 1479 1478 1486 1498
1490 1486 1483 1484 1484 1483 1482 1481 1487 1488 1445 1458 1460 1458 1461 1463 1464 1466 1467 1471 1478 1483 1481 1467 1459 1452 1453 1457 1451 1457 1471 1506 1511 1505 1498 1467 1479 1477 1462 1463 1464 1465 1469 1482 1489
1487 1485 1484 1484 1484 1484 1483 1483 1489 1461 1459 1448 1454 1456 1460 1460 1463 1464 1469 1474 1465 1468 1477 1483 1484 1456 1449 1453 1460 1462 1472 1505 1519 1511 1494 1470 1486 1470 1442 1452 1457 1462 1471 1474 1482
1485 1485 1484 1483 1483 1485 1485 1489 1480 1468 1467 1463 1457 1464 1463 1459 1462 1466 1469 1473 1466 1468 1479 1486 1473 1453 1448 1446 1452 1462 1475 1460 1483 1475 1495 1476 1459 1447 1440 1444 1451 1463 1474 1477 1483
1485 1486 1484 1486 1486 1485 1486 1484 1476 1477 1474 1470 1475 1468 1474 1468 1470 1470 1470 1465 1467 1471 1473 1482 1494 1462 1453 1443 1446 1456 1456 1486 1479 1504 1511 1487 1476 1473 1446 1434 1445 1456 1462 1468 1469
1488 1488 1487 1486 1485 1485 1487 1484 1481 1478 1479 1479 1480 1480 1479 1480 1480 1479 1478 1477 1474 1475 1475 1481 1490 1476 1468 1460 1462 1463 1470 1471 1478 1485 1500 1504 1482 1444 1445 1442 1442 1435 1442 1451 1458
1490 1488 1487 1485 1487 1481 1487 1483 1483 1483 1481 1480 1480 1480 1486 1485 1487 1487 1486 1484 1482 1482 1487 1486 1492 1501 1485 1465 1463 1459 1464 1472 1496 1495 1485 1489 1478 1441 1447 1448 1435 1441 1438 1442 1449
1491 1490 1489 1486 1490 1488 1484 1489 1491 1491 1491 1491 1488 1491 1491 1493 1498 1492 1490 1488 1489 1489 1500 1497 1502 1510 1493 1474 1467 1474 1466 1466 1474 1479 1488 1497 1478 1447 1448 1452 1462 1466 1456 1458 1465
1496 1492 1494 1492 1494 1494 1493 1495 1498 1500 1501 1499 1498 1497 1500 1502 1497 1498 1496 1493 1495 1498 1498 1498 1503 1508 1517 1506 1500 1496 1484 1477 1479 1491 1487 1480 1469 1451 1457 1457 1457 1469 1471 1471 1477
1500 1502 1502 1504 1501 1501 1501 1507 1505 1507 1506 1504 1501 1506 1510 1511 1507 1503 1501 1499 1500 1500 1501 1503 1510 1506 1501 1498 1497 1494 1490 1481 1483 1482 1490 1479 1471 1468 1461 1460 1460 1462 1472 1479 1483
1506 1507 1508 1506 1502 1503 1508 1512 1511 1514 1513 1511 1512 1513 1513 1515 1515 1513 1511 1509 1507 1503 1505 1503 1512 1506 1504 1499 1496 1496 1491 1484 1479 1473 1472 1472 1464 1462 1462 1461 1461 1460 1461 1475 1478
1509 1510 1509 1509 1509 1511 1515 1515 1513 1516 1516 1516 1517 1518 1517 1516 1515 1513 1511 1509 1508 1508 1507 1510 1515 1518 1513 1504 1502 1501 1490 1486 1479 1472 1472 1477 1468 1463 1465 1463 1464 1463 1463 1465 1469